Location: Newark
(44.5869°N, 123.1150°W)
Time: 19:19:34
(UTC+00:00)

N. Korean satellite - Pass Details

Date: 30 September 2020
Orbit: 452 x 505 km, 97.2° (Epoch: 28 October)

Event Time Altitude Azimuth Distance (km) Brightness Sun altitude
Rises 12:33:46 0° 36° (NE) 2,570 11.0 -17.8°
Reaches altitude 10° 12:37:50 10° 81° (E) 1,662 10.6 -17.1°
Maximum altitude 12:38:17 10° 89° (E) 1,648 10.5 -17.0°
Drops below altitude 10° 12:38:44 10° 96° (E) 1,657 10.4 -17.0°
Sets 12:42:42 0° 142° (SE) 2,507 10.5 -16.3°
